| time (UTC) | temp C | wind direction | speed KPH | gust KPH | rain 1hr cm | rain 24hr cm | rain mn cm | humidity % | barometer mb |
| 20260503060133 | 2 | 189 | 11.3 | 0.0 | 0.00 | 0.00 | 0.00 | 68 | 984.9 |
| 20260503054550 | 2 | 180 | 9.7 | 0.0 | 0.00 | 0.00 | 0.00 | 66 | 985.4 |
| 20260503051549 | 2 | 188 | 9.7 | 0.0 | 0.00 | 0.00 | 0.00 | 69 | 985.6 |
| 20260503050119 | 2 | 189 | 8.0 | 0.0 | 0.00 | 0.00 | 0.00 | 69 | 985.6 |
| 20260503044549 | 2 | 190 | 8.0 | 0.0 | 0.00 | 0.00 | 0.00 | 67 | 985.8 |
| 20260503043109 | 2 | 195 | 8.0 | 0.0 | 0.00 | 0.00 | 0.00 | 67 | 985.3 |
| 20260503041550 | 2 | 197 | 8.0 | 0.0 | 0.00 | 0.00 | 0.00 | 67 | 985.3 |
| 20260503040121 | 2 | 194 | 8.0 | 0.0 | 0.00 | 0.00 | 0.00 | 67 | 985.3 |
| 20260503034549 | 2 | 198 | 6.4 | 0.0 | 0.00 | 0.00 | 0.00 | 64 | 986.5 |
| 20260503033110 | 2 | 205 | 8.0 | 0.0 | 0.00 | 0.00 | 0.00 | 63 | 986.6 |
| 20260503031549 | 3 | 214 | 9.7 | 0.0 | 0.00 | 0.00 | 0.00 | 63 | 986.6 |
| 20260503030120 | 3 | 219 | 9.7 | 0.0 | 0.00 | 0.00 | 0.00 | 63 | 986.6 |
| 20260503024549 | 3 | 217 | 8.0 | 0.0 | 0.00 | 0.00 | 0.00 | 58 | 987.4 |
| 20260503023109 | 3 | 220 | 8.0 | 0.0 | 0.00 | 0.00 | 0.00 | 62 | 987.1 |
| 20260503021549 | 3 | 223 | 8.0 | 0.0 | 0.00 | 0.00 | 0.00 | 62 | 987.1 |
| 20260503020119 | 3 | 228 | 8.0 | 0.0 | 0.00 | 0.00 | 0.00 | 62 | 987.1 |
| 20260503014549 | 4 | 236 | 8.0 | 0.0 | 0.00 | 0.00 | 0.00 | 55 | 986.6 |
| 20260503013107 | 4 | 239 | 8.0 | 0.0 | 0.00 | 0.00 | 0.00 | 55 | 986.6 |
| 20260503011549 | 5 | 245 | 8.0 | 0.0 | 0.00 | 0.00 | 0.00 | 55 | 986.6 |
| 20260503010118 | 5 | 255 | 8.0 | 0.0 | 0.00 | 0.00 | 0.00 | 55 | 986.6 |
| 20260503004549 | 5 | 262 | 6.4 | 0.0 | 0.00 | 0.00 | 0.00 | 49 | 987.3 |
| 20260503003103 | 6 | 261 | 6.4 | 0.0 | 0.00 | 0.00 | 0.00 | 49 | 987.5 |
| 20260503001549 | 6 | 273 | 4.8 | 0.0 | 0.00 | 0.00 | 0.00 | 49 | 987.5 |
| 20260503000121 | 6 | 285 | 6.4 | 0.0 | 0.00 | 0.00 | 0.00 | 49 | 987.5 |
| 20260502234550 | 7 | 297 | 9.7 | 0.0 | 0.00 | 0.00 | 0.00 | 39 | 987.5 |
| 20260502233102 | 7 | 296 | 9.7 | 0.0 | 0.00 | 0.00 | 0.00 | 40 | 987.5 |
| 20260502231550 | 7 | 294 | 11.3 | 0.0 | 0.00 | 0.00 | 0.00 | 40 | 987.5 |
| 20260502230117 | 7 | 293 | 12.9 | 0.0 | 0.00 | 0.00 | 0.00 | 40 | 987.5 |
| 20260502224550 | 7 | 288 | 14.5 | 0.0 | 0.00 | 0.00 | 0.00 | 39 | 987.8 |
| 20260502223108 | 8 | 289 | 16.1 | 0.0 | 0.00 | 0.00 | 0.00 | 37 | 988.6 |
| 20260502221551 | 8 | 286 | 17.7 | 0.0 | 0.00 | 0.00 | 0.00 | 37 | 988.6 |
| 20260502220117 | 8 | 287 | 17.7 | 0.0 | 0.00 | 0.00 | 0.00 | 37 | 988.6 |
| 20260502214550 | 8 | 287 | 17.7 | 0.0 | 0.00 | 0.00 | 0.00 | 42 | 988.7 |
| 20260502213109 | 8 | 285 | 17.7 | 0.0 | 0.00 | 0.00 | 0.00 | 42 | 988.3 |
| 20260502211550 | 8 | 281 | 17.7 | 0.0 | 0.00 | 0.00 | 0.00 | 42 | 988.3 |
| 20260502210119 | 8 | 280 | 17.7 | 0.0 | 0.00 | 0.00 | 0.00 | 42 | 988.3 |
| 20260502204550 | 8 | 278 | 17.7 | 0.0 | 0.00 | 0.00 | 0.00 | 42 | 988.8 |
| 20260502203108 | 8 | 276 | 17.7 | 0.0 | 0.00 | 0.00 | 0.00 | 43 | 989.2 |
| 20260502201550 | 8 | 278 | 17.7 | 0.0 | 0.00 | 0.00 | 0.00 | 43 | 989.2 |
| 20260502200116 | 8 | 277 | 19.3 | 0.0 | 0.00 | 0.00 | 0.00 | 43 | 989.2 |
| 20260502194550 | 8 | 281 | 19.3 | 0.0 | 0.00 | 0.00 | 0.00 | 34 | 989.3 |
| 20260502193103 | 8 | 286 | 19.3 | 0.0 | 0.00 | 0.00 | 0.00 | 34 | 989.3 |
| 20260502191550 | 8 | 293 | 19.3 | 0.0 | 0.00 | 0.00 | 0.00 | 34 | 989.4 |
| 20260502190118 | 8 | 290 | 19.3 | 0.0 | 0.00 | 0.00 | 0.00 | 34 | 989.4 |
| 20260502184550 | 8 | 288 | 19.3 | 0.0 | 0.00 | 0.00 | 0.00 | 41 | 989.2 |
| 20260502183109 | 8 | 293 | 19.3 | 0.0 | 0.00 | 0.00 | 0.00 | 44 | 989.2 |
| 20260502181549 | 7 | 292 | 19.3 | 0.0 | 0.00 | 0.00 | 0.00 | 44 | 989.2 |
| 20260502180123 | 7 | 294 | 19.3 | 0.0 | 0.00 | 0.00 | 0.00 | 44 | 989.2 |
| 20260502170114 | 7 | 286 | 16.1 | 0.0 | 0.00 | 0.00 | 0.00 | 43 | 989.8 |
| 20260502163110 | 7 | 283 | 14.5 | 0.0 | 0.00 | 0.00 | 0.00 | 47 | 988.8 |
| 20260502161550 | 7 | 286 | 14.5 | 0.0 | 0.00 | 0.00 | 0.00 | 47 | 988.8 |
| 20260502160120 | 6 | 287 | 12.9 | 0.0 | 0.00 | 0.00 | 0.00 | 47 | 988.8 |
| 20260502151551 | 5 | 293 | 11.3 | 0.0 | 0.00 | 0.00 | 0.00 | 54 | 988.9 |
| 20260502150123 | 5 | 292 | 11.3 | 0.0 | 0.00 | 0.00 | 0.00 | 54 | 988.9 |
| 20260502140127 | 4 | 318 | 9.7 | 0.0 | 0.00 | 0.00 | 0.00 | 63 | 989.6 |
| 20260502130118 | 2 | 325 | 8.0 | 0.0 | 0.00 | 0.00 | 0.00 | 73 | 989.2 |
| 20260502123108 | 1 | 325 | 8.0 | 0.0 | 0.00 | 0.00 | 0.00 | 78 | 989.3 |
| 20260502121550 | 1 | 324 | 8.0 | 0.0 | 0.00 | 0.00 | 0.00 | 78 | 989.3 |
| 20260502120130 | 0 | 315 | 8.0 | 0.0 | 0.00 | 0.00 | 0.00 | 78 | 989.3 |
| 20260502114550 | 0 | 305 | 6.4 | 0.0 | 0.00 | 0.00 | 0.00 | 85 | 989.0 |
| 20260502113112 | 0 | 281 | 3.2 | 0.0 | 0.00 | 0.00 | 0.00 | 85 | 988.9 |
| 20260502111550 | 0 | 264 | 3.2 | 0.0 | 0.00 | 0.00 | 0.00 | 85 | 988.9 |
| 20260502110119 | 0 | 265 | 3.2 | 0.0 | 0.00 | 0.00 | 0.00 | 85 | 988.9 |
| 20260502104550 | 0 | 270 | 3.2 | 0.0 | 0.00 | 0.00 | 0.00 | 83 | 988.7 |
| 20260502103108 | 0 | 290 | 3.2 | 0.0 | 0.00 | 0.00 | 0.00 | 81 | 989.0 |
| 20260502101550 | 0 | 297 | 3.2 | 0.0 | 0.00 | 0.00 | 0.00 | 81 | 989.0 |
| 20260502100119 | 0 | 310 | 4.8 | 0.0 | 0.00 | 0.00 | 0.00 | 81 | 989.0 |
| 20260502090119 | 0 | 307 | 6.4 | 0.0 | 0.00 | 0.00 | 0.00 | 82 | 988.5 |
| 20260502070119 | 0 | 315 | 9.7 | 0.0 | 0.00 | 0.00 | 0.00 | 80 | 987.7 |
| 20260502064550 | 0 | 315 | 9.7 | 0.0 | 0.00 | 0.00 | 0.00 | 77 | 989.0 |